Погода в Карловаце

Хорватия     45°29′34″N   15°33′00″E
темп.,
°C
ветер,
м/с
пор.,
м/с
влажн.,
%
обл.,
%
осадки,
мм/ч
давл.,
гПа
погр.,
м
2 марта, вт
вт201:00+3ссв11870 0.0 103522
04:00+2ссз11920 0.0 103522
07:00+2с11930 0.0 103522
10:00+9всв11630 0.0 1035439
13:00+13в12460 0.0 10341045
16:00+12всв11450 0.0 1033990
19:00+7в11650 0.0 103422
22:00+5зсз11740 0.0 103522
3 марта, ср
ср301:00+4з11800 0.0 103422
04:00+2зюз11840 0.0 103322
07:00+2юз11860 0.0 103322
10:00+10ю01560 0.0 1032318
13:00+15юв01410 0.0 1031675
16:00+14в01410 0.0 1028603
19:00+8юз00580 0.0 102922
22:00+6зюз11704 0.0 102822
4 марта, чт
чт401:00+5зюз12752 0.0 102722
04:00+3зюз127534 0.0 102522
07:00+3зюз127657 0.0 102423
10:00+11зюз134951 0.0 1023375
13:00+16з363865 0.0 10201268
16:00+14зюз584583 0.0 1018933
19:00+9юз4106287 0.0 1018371
22:00+7юз3107650 0.0 1018439
5 марта, пт
пт501:00+6юз238425 0.0 101770
04:00+6ююз238323 0.0 101668
07:00+7ююз268161 0.0 1016146
10:00+12юз4859100 0.0 10151347
13:00+13зюз5853100 0.0 10141447
16:00+12юз4759100 0.0 10141052
19:00+8ююз127788 0.0 101625
22:00+3св51194100 2.0 1020714
6 марта, сб
сб601:00+2ссв3890100 3.9 1023781
04:00+2ссв2872100 0.3 1026863
07:00+2св1770100 0.3 10281138
10:00+4всв4751100 0.0 10301457
13:00+6всв464280 0.0 10301724
16:00+6всв46390 0.0 10301867
19:00+1в27530 0.0 1032209
22:00−1св12610 0.0 103451